• Join FlightAware (Why Join?)
  • Login
  • US Flag 
02:33AM EDT


 

Airport Tracker/Info


-or-


 

Live Flight TrackerFlight Track Log ✈ EJA831 ✈ 30-Jul-2013 ✈ KAPF - KLOT

Flight Track Log - Related Links

Times and Time Zones

All times are in EDT time to prevent confusion due to time zone crossing. See the EJA831 flight status page for this flight to view local times or setup timezone preferences in your user account.

Time Position Orientation Groundspeed Altitude Reporting Facility
EDT Latitude Longitude Course Direction KTS MPH feet Rate Location/Type
11:18AM 26.2111 -81.7031 340° North 221 254 4,100  Level Miami Center
11:19AM 26.2511 -81.7511 313° West 237 273 6,800 2,880 Climbing Miami Center
11:20AM 26.2567 -81.8344 274° West 233 268 9,900 2,760 Climbing Miami Center
11:21AM 26.2725 -81.9233 281° West 262 302 12,400 2,280 Climbing Miami Center
11:22AM 26.2942 -82.0192 284° West 298 343 14,500 2,400 Climbing Miami Center
11:23AM 26.1908 -82.3864 340° North  Level FlightAware Approximate
11:23AM 26.3178 -82.1175 285° West 324 373 17,200  Level Miami Center
11:24AM 26.2887 -82.4272 340° North  Level FlightAware Approximate
11:24AM 26.3375 -82.2039 284° West 324 373 18,900  Level Miami Center
11:25AM 26.3781 -82.2917 297° West 324 373 20,800 1,680 Climbing Miami Center
11:26AM 26.4622 -82.3325 337° Northwest 303 349 22,300 1,500 Climbing Miami Center
11:27AM 26.5503 -82.3808 334° Northwest 320 368 23,800 1,500 Climbing Miami Center
11:28AM 26.6403 -82.4267 336° Northwest 340 391 25,300 1,380 Climbing Miami Center
11:29AM 26.7322 -82.4775 334° Northwest 357 411 26,600 1,140 Climbing Miami Center
11:30AM 26.8264 -82.5264 335° Northwest 362 417 27,600 1,080 Climbing Miami Center
11:31AM 26.9225 -82.5728 337° Northwest 367 422 28,800 1,200 Climbing Miami Center
11:32AM 27.0167 -82.6242 334° Northwest 374 430 30,100 1,320 Climbing Miami Center
11:33AM 27.1106 -82.6753 334° Northwest 374 430 31,500 1,380 Climbing Miami Center
11:34AM 27.2047 -82.7222 336° Northwest 374 430 32,900 1,320 Climbing Miami Center
11:35AM 27.3047 -82.7739 335° Northwest 369 425 34,200 1,140 Climbing Miami Center
11:36AM 27.3906 -82.8181 335° Northwest 369 425 35,200 1,080 Climbing Miami Center
11:37AM 27.5017 -82.8542 344° North 369 425 36,400 960 Climbing Miami Center
11:38AM 27.5922 -82.8847 343° North 369 425 37,200 900 Climbing Miami Center
11:39AM 27.6908 -82.9203 342° North 374 430 38,300 1,020 Climbing Miami Center
11:40AM 27.7958 -82.9542 344° North 374 430 39,300 600 Climbing Miami Center
11:42AM 27.9517 -83.0053 344° North 388 447 40,000 240 Climbing Jacksonville Center
11:43AM 28.0517 -83.0408 343° North 377 434 40,000  Level Jacksonville Center
11:44AM 28.1561 -83.0761 343° North 377 434 40,000  Level Jacksonville Center
11:45AM 28.2644 -83.1069 346° North 383 441 40,000  Level Jacksonville Center
11:46AM 28.3689 -83.1403 344° North 383 441 40,000  Level Jacksonville Center
11:47AM 28.4836 -83.1758 345° North 383 441 40,000  Level Jacksonville Center
11:48AM 28.5919 -83.2094 345° North 388 447 40,000  Level Jacksonville Center
11:49AM 28.6961 -83.2453 343° North 388 447 40,000  Level Jacksonville Center
11:50AM 28.8067 -83.2789 345° North 398 458 40,000  Level Jacksonville Center
11:51AM 28.9111 -83.3125 344° North 398 458 40,000  Level Jacksonville Center
11:52AM 29.0131 -83.3486 343° North 393 452 40,000  Level Jacksonville Center
11:53AM 29.1175 -83.3822 344° North 387 445 40,000  Level Jacksonville Center
11:54AM 29.2175 -83.4114 346° North 372 428 40,000  Level Jacksonville Center
11:55AM 29.3194 -83.4475 343° North 377 434 40,000  Level Jacksonville Center
11:56AM 29.4239 -83.4792 345° North 377 434 40,000  Level Jacksonville Center
11:57AM 29.5258 -83.5131 344° North 377 434 40,000  Level Jacksonville Center
11:58AM 29.6258 -83.5497 342° North 377 434 40,000  Level Jacksonville Center
11:59AM 29.7281 -83.5789 346° North 377 434 40,000  Level Jacksonville Center
12:00PM 29.8303 -83.6133 344° North 377 434 40,000  Level Jacksonville Center
12:01PM 29.9303 -83.6450 345° North 377 434 40,000  Level Jacksonville Center
12:02PM 30.0281 -83.6794 343° North 377 434 40,000  Level Jacksonville Center
12:03PM 30.1303 -83.7117 345° North 372 428 40,000  Level Jacksonville Center
12:04PM 30.2303 -83.7436 345° North 372 428 40,000  Level Jacksonville Center
12:05PM 30.3281 -83.7758 344° North 372 428 40,000  Level Jacksonville Center
12:06PM 30.4281 -83.8106 343° North 372 428 40,000  Level Jacksonville Center
12:07PM 30.5261 -83.8428 344° North 372 428 40,000  Level Jacksonville Center
12:08PM 30.6136 -83.8700 345° North 365 420 40,000  Level Jacksonville Center
12:09PM 30.7094 -83.9025 344° North 358 412 40,000  Level Jacksonville Center
12:10PM 30.8092 -83.9375 343° North 363 418 40,000  Level Jacksonville Center
12:11PM 30.9092 -83.9700 344° North 363 418 40,000  Level Jacksonville Center
12:12PM 31.0092 -84.0053 343° North 363 418 40,000  Level Jacksonville Center
12:13PM 31.1706 -84.0608 344° North 374 430 40,000  Level Atlanta Center
12:14PM 31.2708 -84.0947 344° North 374 430 40,000  Level Atlanta Center
12:15PM 31.3689 -84.1289 343° North 374 430 40,000  Level Atlanta Center
12:16PM 31.4689 -84.1631 344° North 374 430 40,000  Level Atlanta Center
12:17PM 31.5711 -84.1972 344° North 374 430 40,000  Level Atlanta Center
12:18PM 31.6714 -84.2317 344° North 374 430 40,000  Level Atlanta Center
12:19PM 31.7714 -84.2636 345° North 374 430 40,000  Level Atlanta Center
12:20PM 31.8736 -84.3006 343° North 379 436 40,000  Level Atlanta Center
12:21PM 31.9739 -84.3350 344° North 379 436 40,000  Level Atlanta Center
12:22PM 32.0739 -84.3697 344° North 379 436 40,000  Level Atlanta Center
12:23PM 32.1739 -84.4019 345° North 374 430 40,000  Level Atlanta Center
12:24PM 32.2719 -84.4392 342° North 374 430 40,000  Level Atlanta Center
12:25PM 32.3761 -84.4742 344° North 374 430 40,000  Level Atlanta Center
12:26PM 32.4575 -84.5017 344° North 374 430 40,000  Level Atlanta Center
12:27PM 32.5639 -84.5392 343° North 374 430 40,000  Level Atlanta Center
12:28PM 32.6658 -84.5717 345° North 374 430 40,000  Level Atlanta Center
12:29PM 32.7639 -84.6094 342° North 374 430 40,000  Level Atlanta Center
12:30PM 32.8639 -84.6472 342° North 367 422 40,000  Level Atlanta Center
12:31PM 32.9619 -84.6800 344° North 367 422 40,000  Level Atlanta Center
12:32PM 33.0597 -84.7156 343° North 362 417 40,000  Level Atlanta Center
12:33PM 33.1619 -84.7533 343° North 367 422 40,000  Level Atlanta Center
12:34PM 33.2722 -84.7892 345° North 367 422 40,000  Level Atlanta Center
12:35PM 33.3700 -84.8247 343° North 362 417 40,000  Level Atlanta Center
12:36PM 33.4681 -84.8606 343° North 362 417 40,000  Level Atlanta Center
12:37PM 33.5658 -84.8939 344° North 362 417 40,000  Level Atlanta Center
12:38PM 33.6658 -84.9325 342° North 362 417 40,000  Level Atlanta Center
12:39PM 33.7636 -84.9658 344° North 362 417 40,000  Level Atlanta Center
12:40PM 33.8531 -84.9994 343° North 362 417 40,000  Level Atlanta Center
12:41PM 33.9531 -85.0331 344° North 362 417 40,000  Level Atlanta Center
12:42PM 34.0489 -85.0667 344° North 362 417 40,000  Level Atlanta Center
12:43PM 34.1486 -85.1031 343° North 362 417 40,000  Level Atlanta Center
12:44PM 34.2444 -85.1369 344° North 362 417 40,000  Level Atlanta Center
12:45PM 34.3525 -85.1736 344° North 362 417 40,000  Level Atlanta Center
12:46PM 34.4461 -85.2100 342° North 357 411 40,000  Level Atlanta Center
12:47PM 34.5439 -85.2467 343° North 357 411 40,000  Level Atlanta Center
12:48PM 34.6436 -85.2811 344° North 363 418 40,000  Level Atlanta Center
12:49PM 34.7414 -85.3203 342° North 363 418 40,000  Level Atlanta Center
12:50PM 34.8369 -85.3547 344° North 363 418 40,000  Level Atlanta Center
12:51PM 34.9347 -85.3917 343° North 363 418 40,000  Level Atlanta Center
12:52PM 35.0322 -85.4289 343° North 358 412 40,000  Level Atlanta Center
12:53PM 35.1322 -85.4636 344° North 365 420 40,000  Level Atlanta Center
12:54PM 35.2297 -85.4983 344° North 365 420 40,000  Level Atlanta Center
12:55PM 35.3097 -85.5278 343° North 366 421 40,000  Level Memphis Center
12:56PM 35.4069 -85.5656 342° North 353 406 40,000  Level Memphis Center
12:57PM 35.5064 -85.6031 343° North 359 413 40,000  Level Memphis Center
12:58PM 35.6039 -85.6383 344° North 365 420 40,000  Level Memphis Center
12:59PM 35.7033 -85.6786 342° North 370 426 40,000  Level Memphis Center
01:00PM 35.8028 -85.7142 344° North 370 426 40,000  Level Memphis Center
01:01PM 35.9000 -85.7494 344° North 365 420 40,000  Level Memphis Center
01:02PM 35.9992 -85.7875 343° North 365 420 40,000  Level Memphis Center
01:03PM 36.0986 -85.8231 344° North 365 420 40,000  Level Memphis Center
01:04PM 36.1958 -85.8589 343° North 365 420 40,000  Level Memphis Center
01:05PM 36.2931 -85.8947 343° North 370 426 40,000  Level Memphis Center
01:06PM 36.3922 -85.9331 343° North 363 418 40,000  Level Memphis Center
01:07PM 36.4917 -85.9717 343° North 370 426 40,000  Level Memphis Center
01:08PM 36.5783 -86.0056 343° North 370 426 40,000  Level Memphis Center
01:09PM 36.6756 -86.0444 342° North 370 426 40,000  Level Memphis Center
01:10PM 36.7747 -86.0806 344° North 370 426 40,000 -180 Level Memphis Center
01:12PM 36.9200 -86.1381 342° North 369 425 39,600 -660 Descending Indianapolis Center
01:13PM 37.0192 -86.1756 343° North 368 423 38,500 -840 Descending Indianapolis Center
01:14PM 37.1225 -86.2047 347° North 376 433 38,000 -300 Descending Indianapolis Center
01:15PM 37.2289 -86.2292 350° North 383 441 38,000  Level Indianapolis Center
01:16PM 37.3367 -86.2539 350° North 389 448 38,000  Level Indianapolis Center
01:17PM 37.4614 -86.2864 348° North 390 449 38,000 -720 Level Indianapolis Center
01:18PM 37.5706 -86.3128 349° North 394 453 36,600 -1,440 Descending Indianapolis Center
01:19PM 37.6794 -86.3381 350° North 396 456 35,100 -1,260 Descending Indianapolis Center
01:20PM 37.7925 -86.3653 349° North 404 465 34,100 -1,080 Descending Indianapolis Center
01:21PM 37.9125 -86.3972 348° North 411 473 33,000 -1,020 Descending Indianapolis Center
01:22PM 38.0294 -86.4050 357° North 424 488 32,000 -1,020 Descending Indianapolis Center
01:23PM 38.1467 -86.4058 360° North 423 487 31,000 -1,020 Descending Indianapolis Center
01:24PM 38.2583 -86.4381 347° North 413 475 30,000 -1,020 Descending Indianapolis Center
01:25PM 38.3728 -86.4675 349° North 419 482 29,000 -1,020 Descending Indianapolis Center
01:26PM 38.5033 -86.5031 348° North 403 464 28,000 -1,020 Descending Indianapolis Center
01:27PM 38.6119 -86.5328 348° North 400 460 27,000 -1,020 Descending Indianapolis Center
01:28PM 38.7289 -86.5633 348° North 419 482 26,000 -540 Descending Indianapolis Center
01:29PM 38.8467 -86.5950 348° North 431 496 26,000  Level Indianapolis Center
01:30PM 38.9628 -86.6269 348° North 427 491 26,000  Level Indianapolis Center
01:31PM 39.0786 -86.6592 348° North 427 491 26,000  Level Indianapolis Center
01:33PM 39.2619 -86.7100 348° North 426 490 26,000  Level Chicago Center
01:33PM 39.3311 -86.7278 349° North 422 486 26,000  Level Indianapolis Center
01:34PM 39.4397 -86.7572 348° North 403 464 26,000  Level Indianapolis Center
01:35PM 39.5469 -86.7878 348° North 394 453 26,000  Level Indianapolis Center
01:36PM 39.6528 -86.8164 348° North 388 447 26,000  Level Indianapolis Center
01:37PM 39.7589 -86.8453 348° North 387 445 26,000  Level Indianapolis Center
01:38PM 39.8631 -86.8742 348° North 384 442 26,000  Level Indianapolis Center
01:40PM 39.9667 -86.9033 348° North 380 437 26,000  Level Indianapolis Center
01:41PM 40.0678 -86.9322 348° North 375 432 26,000 -600 Level Indianapolis Center
01:41PM 40.1311 -86.9506 348° North 381 438 25,100 -1,500 Descending Chicago Center
01:42PM 40.2403 -86.9797 348° North 398 458 23,700 -1,380 Descending Chicago Center
01:43PM 40.3497 -87.0111 348° North 404 465 22,300 -1,440 Descending Chicago Center
01:44PM 40.4786 -87.0475 348° North 397 457 20,800 -1,380 Descending Chicago Center
01:45PM 40.5842 -87.0825 346° North 395 455 19,500 -1,260 Descending Chicago Center
01:46PM 40.6839 -87.1358 338° Northwest 390 449 18,300 -1,080 Descending Chicago Center
01:47PM 40.7825 -87.1869 339° North 378 435 17,300 -1,080 Descending Chicago Center
01:48PM 40.8756 -87.2356 338° Northwest 363 418 16,100 -1,140 Descending Chicago Center
01:49PM 40.9689 -87.2847 338° Northwest 360 414 15,000 -1,140 Descending Chicago Center
01:50PM 41.0358 -87.3750 315° West 354 407 13,800 -1,500 Descending Chicago Center
01:51PM 41.1028 -87.4917 307° West 351 404 11,900 -1,800 Descending Chicago Center
01:52PM 41.1581 -87.5897 307° West 337 388 10,200 -1,500 Descending Chicago Center
01:53PM 41.2050 -87.6725 307° West 288 331 8,800 -1,440 Descending Chicago Center
01:55PM 41.2508 -87.7558 306° West 281 323 7,300 -1,500 Descending Chicago Center
01:56PM 41.3044 -87.8539 306° West 277 319 5,700 -1,080 Descending Chicago Center
01:57PM 41.3475 -87.9328 306° West 278 320 5,100 -1,020 Descending Chicago Center
01:58PM 41.4333 -88.0333 319° Northwest 272 313 3,100 -1,260 Descending Chicago TRACON
02:00PM 41.4802 -88.1937 304° West  Level FlightAware Approximate
02:07PM 41.6000 -88.0833 71° East  Level FlightAware Approximate
02:08PM 41.6081 -88.0962 71° East  Level Estimated
02:09PM 41.6081 -88.0962 71° East  Level Estimated
02:10PM 41.6081 -88.0962 71° East  Level Estimated